La Paz, Mexico

11:07 AM MDT on September 26, 2017 (GMT -0600)
Gen Manuel Marquez De Leon

Weather History for MMLP - September, 2012

Change the Weather History Date:

Monday, September 10, 2012

  Actual Average Record
Temperature  
Mean Temperature 86 °F -  
Max Temperature 95 °F 93 °F 100 °F (2001)
Min Temperature 78 °F 72 °F 71 °F (2001)
Cooling Degree Days 22    
Growing Degree Days 36 (Base 50)    
Moisture  
Dew Point 74 °F    
Average Humidity 74    
Maximum Humidity 89    
Minimum Humidity 49    
Precipitation  
Precipitation 0.39 in - - ()
Sea Level Pressure  
Sea Level Pressure 29.89 in    
Wind  
Wind Speed 5 mph ()    
Max Wind Speed 18 mph    
Max Gust Speed -    
Visibility 9.0 miles    
Events Rain , Thunderstorm    
Averages and records for this station are not official NWS values.
T = Trace of Precipitation, MM = Missing Value Source: Averaged Metar Reports

Daily Weather History Graph

Daily Weather History Graph

Search for Another Location

Airport or City:

Trip Planner

Search our weather history database for the weather conditions in past years. The results will help you decide how hot, cold, wet, or windy it might be!

Date:

Astronomy

Sep. 10, 2012 Rise Set
Actual Time 7:06 AM MDT 7:29 PM MDT
Civil Twilight 6:43 AM MDT 7:52 PM MDT
Nautical Twilight 6:16 AM MDT 8:19 PM MDT
Astronomical Twilight 5:49 AM MDT 8:45 PM MDT
Moon 1:57 AM MDT (9/10) 3:36 PM MDT (9/10)
Length of Visible Light 13h 09m
Length of Day
12h 23m
Waning Crescent, 29% of the Moon is Illuminated
Sep 10
Waning Crescent
Sep 15
New
Sep 22
First Quarter
Sep 29
Full
Oct 8
Last Quarter

Hourly Weather History & Observations

Time (MDT) Temp. Heat Index Dew Point Humidity Pressure Visibility Wind Dir Wind Speed Gust Speed Precip Events Conditions
5:50 AM 81 °F - 76 °F 82% 29.89 in 2 mi East 2.2 mph - -   Mostly Cloudy
5:57 AM 78.8 °F - 75.2 °F 89% 29.92 in 8.0 mi South 9.2 mph - N/A   Mostly Cloudy
6:42 AM 78.8 °F - 75.2 °F 89% 29.88 in 8.0 mi SSE 4.6 mph - N/A   Mostly Cloudy
7:40 AM 78.8 °F - 75.2 °F 89% 29.90 in 8.0 mi SSE 4.6 mph - N/A   Overcast
8:40 AM 83 °F - 76 °F 74% 29.93 in 16 mi South 2.2 mph - -   Mostly Cloudy
8:45 AM 80.6 °F 86.2 °F 75.2 °F 84% 29.96 in 7.0 mi SSE 6.9 mph - N/A   Mostly Cloudy
9:49 AM 84.2 °F 92.3 °F 75.2 °F 74% 29.92 in 10.0 mi South 3.5 mph - N/A   Scattered Clouds
10:47 AM 86.0 °F 95.1 °F 75.2 °F 70% 29.92 in 10.0 mi SSE 4.6 mph - N/A   Mostly Cloudy
11:47 AM 87.8 °F 95.6 °F 73.4 °F 62% 29.96 in 10.0 mi SE 3.5 mph - N/A   Mostly Cloudy
11:50 AM 92 °F - 75 °F 49% 29.91 in 19 mi South 4.5 mph - -   Scattered Clouds
12:46 PM 89.6 °F 96.2 °F 71.6 °F 55% 29.89 in 10.0 mi SW 6.9 mph - N/A   Mostly Cloudy
1:44 PM 91.4 °F 96.8 °F 69.8 °F 49% 29.87 in 10.0 mi WNW 4.6 mph - N/A   Mostly Cloudy
2:19 PM 93.2 °F 102.4 °F 73.4 °F 52% 29.85 in 10.0 mi NNW 8.1 mph - N/A Rain , Thunderstorm Thunderstorms and Rain
2:50 PM 80 °F - 70 °F 65% 29.88 in 12 mi ENE 6.7 mph - - Rain Rain
2:52 PM 80.6 °F 83.9 °F 69.8 °F 70% 29.86 in 8.0 mi ENE 18.4 mph - N/A Rain , Thunderstorm Thunderstorms and Rain
3:40 PM 82.4 °F 88.2 °F 73.4 °F 74% 29.85 in 8.0 mi SE 10.4 mph - N/A Rain , Thunderstorm Thunderstorms and Rain
4:23 PM 78.8 °F - 75.2 °F 89% 29.85 in 5.0 mi South 5.8 mph - N/A Rain Light Rain
4:45 PM 80.6 °F 86.2 °F 75.2 °F 84% 29.85 in 8.0 mi SSW 5.8 mph - N/A   Mostly Cloudy
5:47 PM 82.4 °F 88.2 °F 73.4 °F 74% 29.88 in 8.0 mi SE 5.8 mph - N/A   Mostly Cloudy
5:50 PM 86 °F - 75 °F 64% 29.82 in 19 mi South 6.7 mph - -   Partly Cloudy
6:40 PM 84.2 °F 90.9 °F 73.4 °F 70% 29.84 in 8.0 mi SSW 5.8 mph - N/A   Mostly Cloudy
7:40 PM 82.4 °F 89.5 °F 75.2 °F 79% 29.85 in 8.0 mi Calm Calm - N/A   Mostly Cloudy
8:44 PM 82.4 °F 89.5 °F 75.2 °F 79% 29.92 in 8.0 mi Calm Calm - N/A   Mostly Cloudy
8:45 PM 84 °F - 76 °F 72% 29.85 in 2 mi Calm Calm - -   Partly Cloudy
9:40 PM 80.6 °F 87.1 °F 77.0 °F 89% 29.90 in 10.0 mi SE 3.5 mph - N/A   Scattered Clouds
10:40 PM 80.6 °F 87.1 °F 77.0 °F 89% 29.91 in 10.0 mi SSE 3.5 mph - N/A   Scattered Clouds
11:50 PM 82 °F - 76 °F 79% 29.91 in 2 mi Calm Calm - -